Regional Weather Roundup
Issued by NWS

Home | Current Version | Previous Version | Text Only | Print | Product List | Glossary On
Versions: 1 2 3 4 5 6 7 8 9 10 11 12 13 14 15 16 17 18 19 20 21 22 23 24 25 26 27 28 29 30 31 32 33 34 35 36 37 38 39 40 41 42 43 44 45 46 47 48 49 50
000
ASUS43 KLOT 191411
RWRIL

ILLINOIS REGIONAL WEATHER ROUNDUP
NATIONAL WEATHER SERVICE CHICAGO/ROMEOVILLE IL
800 AM CST THU JAN 19 2017

NOTE: "FAIR" INDICATES FEW OR NO CLOUDS BELOW 12,000 FEET WITH NO
SIGNIFICANT WEATHER AND/OR OBSTRUCTIONS TO VISIBILITY.

* THESE STATIONS ARE NOT UNDER NWS QUALITY CONTROL. THEY ALSO MAY NOT
  REPORT WEATHER SUCH AS PRECIPITATION OR FOG.

ILZ001-002-007-009-015-016-024-191500-
NORTHWEST ILLINOIS

CITY           SKY/WX    TMP DP  RH WIND       PRES   REMARKS
MOLINE         CLOUDY    31  28  89 NE3       29.92F FOG
STERLING*      CLEAR     31  30  96 E6        29.96F FOG     WCI  25
SAVANNA*       FOG       28  28  99 SE6       29.94F VSB 3/4 WCI  22
$$

ILZ003-004-008-010-011-017-018-191500-
NORTH CENTRAL ILLINOIS

CITY           SKY/WX    TMP DP  RH WIND       PRES   REMARKS
ROCKFORD       FOG       32  29  88 S8        29.98S VSB 1/4 WCI  25
FREEPORT*        N/A     30  29  97 SE5       29.97R FOG     WCI  25
ROCHELLE*      FOG       32  32 100 SE9       29.98S VSB<1/4 WCI  24
DE KALB*       SNOW      32  32 100 S8        29.98S VSB<1/4 WCI  25
$$

ILZ005-006-012>014-019>023-191500-
NORTHEAST ILLINOIS

CITY           SKY/WX    TMP DP  RH WIND       PRES   REMARKS
CHICAGO-OHARE  CLOUDY    34  33  96 S5        30.00R FOG     WCI  30
CHICAGO-MIDWAY CLOUDY    34  32  92 S6        30.01S FOG     WCI  29
AURORA         CLOUDY    33  32  96 S5        29.98F FOG     WCI  29
LANSING*       CLOUDY    34  34 100 S6        30.02R FOG     WCI  28
JOLIET*        CLOUDY    35  35  99 SE5       30.00F FOG     WCI  31
WAUKEGAN       FOG       33  33 100 S6        29.99S VSB<1/4 WCI  28
DUPAGE AIRPORT FOG       33  32  96 S5        29.98R VSB 1/4 WCI  29
KANKAKEE*      MOCLDY    34  33  96 SE3       30.02F FOG
WHEELING       CLOUDY    34  33  96 S6        30.01S FOG     WCI  29
MORRIS*        PTCLDY    33  33  96 SE6       29.98F FOG     WCI  28
ROMEOVILLE*      N/A     33  33 100 S7        29.99F FOG     WCI  27
NORTHERLY ISL    N/A     35  33  92 S12         N/A  WCI  27
$$

LMZ740>746-191500-
SOUTHERN LAKE MICHIGAN

STATION/POSITION SKY/WX   TEMP    WIND        PRES    VSBY  WAVE
                          AIR SEA DIR/SP/G                  HT/PER
                          (F)     (DEG/KT/KT) (MB)    (MI)  (FT/S)
HARRISON CRIB              35     170/  8/  8   N/A
BURNHAM HARBOR             36     200/  9/ 11   N/A
CALUMET HARBOR             35     180/  8/ 12 1015.9R
BURNS HARBOR               35     180/  7/ 12 1017.3F
$$

ILZ025>027-034>036-040-047-049-050-058-095>099-191500-
WEST-CENTRAL ILLINOIS

CITY           SKY/WX    TMP DP  RH WIND       PRES   REMARKS
QUINCY         CLOUDY    39  39 100 SE6       29.88S FOG     WCI  35
GALESBURG*     CLOUDY    33  33 100 E7        29.92F FOG     WCI  27
MACOMB*        CLOUDY    34  34 100 E8        29.93F FOG     WCI  27
JACKSONVILLE*  MOCLDY    39  38  94 E7        29.91F FOG     WCI  34
PITTSFIELD*    CLOUDY    41  39  95 SE5       29.91F FOG
$$

ILZ028>032-037-038-041>044-048-051>054-059>061-191500-
CENTRAL ILLINOIS

CITY           SKY/WX    TMP DP  RH WIND       PRES   REMARKS
PONTIAC          N/A     34  34 100 SE10      29.98F FOG     WCI  26
BLOOMINGTON    CLOUDY    35  34  96 SE9       29.99R FOG     WCI  28
DECATUR        MOCLDY    37  37 100 E9        29.96F FOG     WCI  30
PEORIA         CLOUDY    36  35  96 E6        29.96F FOG     WCI  31
LACON*         MOCLDY    33  33  99 CALM      29.96S FOG
LINCOLN*       CLOUDY    38  37  99 E6        29.96S FOG     WCI  33
SPRINGFIELD    CLOUDY    40  37  89 SE13      29.93F FOG
TAYLORVILLE    CLOUDY    38  37  94 E10       29.93F FOG     WCI  31
$$

ILZ033-039-045-046-055>057-062-063-191500-
EAST-CENTRAL ILLINOIS

CITY           SKY/WX    TMP DP  RH WIND       PRES   REMARKS
CHAMPAIGN      MOCLDY    36  34  92 E8        29.99F FOG     WCI  30
RANTOUL*       MOCLDY    37  36  98 SE6       30.00R FOG     WCI  32
MATTOON        CLOUDY    38  36  92 SE9       29.96F FOG     WCI  31
PARIS*         CLOUDY    37  36  95 SE6       30.02S FOG     WCI  32
$$

ILZ079-100>102-191500-
SOUTHWEST ILLINOIS

CITY           SKY/WX    TMP DP  RH WIND       PRES   REMARKS
ALTON          CLOUDY    41  39  93 SE8       29.95R FOG
BELLEVILLE     LGT RAIN  43  43  99 E3        29.93F FOG
CAHOKIA*       RAIN      43  39  86 E6        29.93S FOG
SPARTA*        LGT RAIN  42  40  95 E8        29.94F
$$

ILZ064>066-069>071-074>076-080>082-084>086-088>090-092>094-191500-
SOUTH-CENTRAL ILLINOIS

CITY           SKY/WX    TMP DP  RH WIND       PRES   REMARKS
CARBONDALE     CLOUDY    44  42  93 SE5       29.95R
CAIRO*         RAIN      46  46  99 E6        29.92S
EFFINGHAM*     MOCLDY    40  40  99 E6        29.98F FOG
MARION         CLOUDY    46  45  93 SE8       29.95S
MT. VERNON     CLOUDY    43  39  86 E7        29.95F
CENTRALIA*     CLOUDY    43  41  92 E7        29.94F
SALEM*         LGT RAIN  44  39  85 SE6       29.96R
METROPOLIS*    CLOUDY    46  45  95 CALM      29.95S FOG
$$

ILZ067-068-072-073-078-083-087-091-191500-
SOUTHEAST ILLINOIS

CITY           SKY/WX    TMP DP  RH WIND       PRES   REMARKS
LAWRENCEVILLE  CLOUDY    40  39  97 E9        30.01F
FLORA*         CLOUDY    43  39  88 SE9       29.98S
FAIRFIELD*     CLOUDY    43  39  87 E3        29.96S
HARRISBURG*    CLOUDY    44  41  90 E8        29.96F FOG
ROBINSON*      CLOUDY    38  36  92 E7        30.01F FOG     WCI  33
CARMI*         CLOUDY    43  40  89 E7        29.97F
$$

ABBREVIATIONS USED IN REMARKS
   TC - TEMPERATURE IN CELSIUS
  WCI - WIND CHILL INDEX
   HX - HEAT INDEX
  VSB - VISIBILITY
$$




USA.gov is the U.S. government's official web portal to all federal, state and local government web resources and services.